World > North America > United States > New York

Hourly Treadwell, NY Regional Weather

Feedback E-mail the Weather

Latest News

Treadwell, NY Weather Maps

°F °C°F °C
Treadwell Weather Map
UTC Time: 5/23/2022, 02:16
Your Time:

Treadwell, NY Regional Weather

Expires:202205230300;;420331
ASUS41 KBGM 230210
RWRBGM

REGIONAL WEATHER ROUNDUP
NATIONAL WEATHER SERVICE BINGHAMTON NY
1000 PM EDT SUN MAY 22 2022

Note: "fair" indicates few or no clouds below 12,000 feet with no
significant weather and/or obstructions to visibility.

* = Station(s) that does not report precipitation, such as rain, 
snow, etc, also no thunder or fog.


NYZ009-015>018-022>025-036-037-044>046-055>057-062-230300
...Central New York...
  
CITY           SKY/WX    TMP DP  RH WIND       PRES   REMARKS
Binghamton     MOCLDY    53  48  83 N13       30.18R                  
Cortland       FAIR      52  46  82 NW5       30.21R                  
Dansville      CLOUDY    56  48  74 CALM      30.25R                  
Elmira         CLEAR     56  48  74 CALM      30.21R                  
Endicott       CLOUDY    57  52  82 N7        30.19R                  
Ithaca         CLEAR     52  50  93 NW7       30.22R                  
Hamilton       CLOUDY    52  48  87 NW6       30.18S                  
Monticello     LGT RAIN  62  59  90 NW12G18   30.11R                  
Norwich        CLOUDY    54  48  82 N6        30.20R                  
Oneonta        CLOUDY    54  52  94 NW10      30.17R                  
Penn Yan       CLEAR     54  46  74 W5        30.23R                  
Rome           CLOUDY    55  51  86 W10       30.19R                  
Seneca Falls   PTCLDY    52  48  87 W6        30.23R                  
Sidney         MOCLDY    55  52  88 NW5       30.18R                  
Skaneateles    FAIR      52  52 100 W5        30.21R                  
Syracuse       PTCLDY    51  48  89 W7        30.20R                  
$$
 

SKY/WX - Weather  TMP - Temperature  DP - Dew Point  RH - Humidity
WIND - Wind Direction/Speed PRES - Barometric Pressure VSB - Visibility
WCI - Wind Chill Index E13G22 Wind - East Wind 13 mph/Gusts of 22 mph

Trending Headlines

Treadwell Radar Loop



Treadwell Quick Facts


National Two Day Weather Forecast


E-mail the Treadwell Weather Forecast

Voice your opinion or tell us about page issues...